Regional Weather Roundup
Issued by NWS Jackson, KY

Home | Current Version | Previous Version | Text Only | Print | Product List | Glossary Off
Versions: 1 2 3 4 5 6 7 8 9 10 11 12 13 14 15 16 17 18 19 20 21 22 23 24 25 26 27 28 29 30 31 32 33 34 35 36 37 38 39 40 41 42 43 44 45 46 47 48 49 50

000
ASUS43 KJKL 171219
RWRJKL

EAST KENTUCKY HOURLY WEATHER ROUNDUP
NATIONAL WEATHER SERVICE JACKSON KY
800 AM EDT THU APR 17 2014

NOTE: "FAIR" INDICATES FEW OR NO CLOUDS BELOW 12,000 FEET WITH
NO SIGNIFICANT WEATHER AND/OR OBSTRUCTIONS TO VISIBILITY.

* THESE REPORTS ARE NOT UNDER NWS QUALITY CONTROL AND MAY NOT
  REPORT WEATHER SUCH AS PRECIPITATION AND FOG.

KYZ079-080-083-085-087-088-110-112-115-119-120-171300
...EASTERN KENTUCKY...

CITY           SKY/WX    TMP DP  RH WIND       PRES   REMARKS
JACKSON        PTSUNNY   43  23  45 CALM      30.38R
6HR MIN TEMP:  42; 6HR MAX TEMP:  45;

LONDON         MOSUNNY   36  30  79 MISG      30.37R
6HR MIN TEMP:  34; 6HR MAX TEMP:  38;

SOMERSET*      MOSUNNY   39  30  70 CALM      30.39R
MONTICELLO*    MOSUNNY   44  30  58 S9        30.37R
6HR MIN TEMP:  34; 6HR MAX TEMP:  44;

WILLIAMSBURG*  SUNNY     37  28  70 SE5       30.38R WCI  34
MIDDLESBORO*   MOSUNNY   35  31  84 CALM      30.41R
6HR MIN TEMP:  31; 6HR MAX TEMP:  36;

HARLAN APT*    SUNNY     45  21  39 SE7G20    30.39R
BLACK MTN*       N/A     34  21  60 S9          N/A  WCI  26
PIKEVILLE APT* SUNNY     45  21  39 SE7       30.39R
BIG SANDY*     PTSUNNY   45  24  43 SE7       30.39R
6HR MIN TEMP:  42; 6HR MAX TEMP:  46;

ASHLAND*       SUNNY     43  27  52 E3        30.39R
MOREHEAD APT*  SUNNY     43  25  49 S6        30.40R
$$

KYZ035-036-041-042-044-050-067-078-099-171300
...CENTRAL KENTUCKY...

CITY           SKY/WX    TMP DP  RH WIND       PRES   REMARKS
MT STERLING*   PTSUNNY   43  28  56 S8        30.38R
FLEMING/MASON* SUNNY     43  27  52 S8        30.37R
DANVILLE*      MOSUNNY   41  30  65 CALM      30.37R
LEXINGTON      MOSUNNY   44  29  55 S8        30.35R
6HR MIN TEMP:  41; 6HR MAX TEMP:  44;

FRANKFORT      SUNNY     40  30  67 SE6       30.33R
6HR MIN TEMP:  33; 6HR MAX TEMP:  40;

$$

KYZ091>093-OHZ055-061-077-WVZ005-015-034-035-042-171300
...SOUTHERN OHIO/WEST VIRGINIA...

CITY           SKY/WX    TMP DP  RH WIND       PRES   REMARKS
COVINGTON      PTSUNNY   38  26  62 S7        30.32R WCI  33
COLUMBUS       CLOUDY    42  22  44 SE9       30.35R
DAYTON         MOSUNNY   38  25  59 S7        30.32R WCI  33
WILMINGTON     MOSUNNY   41  26  55 S9        30.33R
HUNTINGTON     PTSUNNY   42  24  49 CALM      30.39R
CHARLESTON     MOSUNNY   44  21  40 SE7       30.41R
PINEVILLE*     SUNNY     40  23  51 MISG      30.49R
BECKLEY        SUNNY     35  15  44 SE12G18   30.43R WCI  27
BLUEFIELD      SUNNY     36  16  44 SE8G24    30.43R WCI  30
$$

VAZ002-007-008-TNZ017-027-036-066-071-171300
...SOUTHWEST VIRGINIA/EAST TENNESSEE...

CITY           SKY/WX    TMP DP  RH WIND       PRES   REMARKS
WISE*          SUNNY     39  19  45 S6        30.39R WCI  35
ABINGDON*      SUNNY     39  22  51 E14       30.42R WCI  30
BRISTOL        MOSUNNY   37  24  59 CALM      30.43R
KNOXVILLE      PTSUNNY   37  32  82 CALM      30.38R
OAK RIDGE      MOSUNNY   36  33  89 E3        30.40R
CROSSVILLE     MOSUNNY   43  26  51 S6        30.35R
NASHVILLE      MOCLDY    47  31  53 S6        30.34R
$$

...KEY TO REMARKS...
VSB - VISIBILITY IN MILES
WCI - WIND CHILL INDEX
HX  - HEAT INDEX

$$



USA.gov is the U.S. government's official web portal to all federal, state and local government web resources and services.